Home   Weather   Toamasina   Past weeks

Flag for Madagascar Past Weather in Toamasina, Madagascar — Yesterday and Last 2 Weeks

73 °F

Scattered showers. Partly cloudy.

Feels Like: 70 °F
Forecast: 74 / 87 °F
Wind: No wind

Location: Tamatave

Current Time: Oct 28, 2016 at 5:37:59 AM

Latest Report: Oct 28, 2016 at 5:00 AM

Visibility: N/A

Pressure: 30.01 "Hg

Humidity: 94%

Dew Point: 72 °F

Location of ToamasinaLocation

Past Weather in Toamasina — Graph


Toamasina Temperature Yesterday

Maximum temperature yesterday: 82 °F (at 9:00 AM)
Minimum temperature yesterday: 73 °F (at 12:00 AM)
Average temperature yesterday: 79 °F

High & Low Weather Summary for the Past Weeks

High82 °F (Oct 14, 12:00 PM)100% (Oct 22, 4:00 AM)30.15 "Hg (Oct 22, 4:00 AM)
Low64 °F (Oct 21, 12:00 AM)58% (Oct 19, 9:00 AM)29.89 "Hg (Oct 26, 2:00 PM)
Average76 °F82%30.05 "Hg
* Reported Oct 13 4:00 AM — Oct 28 4:00 AM, Toamasina, Weather by CustomWeather, © 2016

Note: Actual official high and low records may vary slightly from our data, if they occured in-between our weather recording intervals... More about our weather records


Toamasina Weather History for the Previous 24 Hours

Scroll right to see more
Time TempWeatherWind HumidityBarometerVisibility
4:00 AM
Fri, Oct 28
73 °FScattered showers. Partly cloudy.No wind94%30.01 "HgN/A
3:00 AM73 °FScattered showers. Partly cloudy.No wind100%30.01 "HgN/A
2:00 AM75 °FScattered showers. Partly cloudy.No wind94%30.01 "HgN/A
1:00 AM75 °FScattered showers. Partly cloudy.No wind94%30.04 "HgN/A
12:00 AM77 °FScattered showers. Partly cloudy.No wind89%30.07 "HgN/A
11:00 PM
Thu, Oct 27
79 °FScattered showers. Partly cloudy.No wind84%30.07 "HgN/A
10:00 PM79 °FPassing clouds.7 mph84%30.07 "HgN/A
9:00 PM79 °FPassing clouds.12 mph79%30.07 "HgN/A
8:00 PM79 °FPassing clouds.12 mph84%30.04 "HgN/A
7:00 PM79 °FPassing clouds.14 mph84%30.01 "HgN/A
6:00 PM79 °FPassing clouds.12 mph84%29.98 "HgN/A
5:00 PM81 °FPassing clouds.12 mph79%29.95 "HgN/A
4:00 PM82 °FPassing clouds.12 mph70%29.92 "HgN/A
3:00 PM82 °FPassing clouds.9 mph70%29.95 "HgN/A
2:00 PM82 °FPassing clouds.12 mph74%29.95 "HgN/A
1:00 PM82 °FScattered clouds.12 mph70%29.98 "HgN/A
12:00 PM82 °FScattered clouds.12 mph70%30.01 "HgN/A
11:00 AM82 °FScattered clouds.14 mph74%30.01 "HgN/A
10:00 AM82 °FScattered clouds.14 mph70%30.01 "HgN/A
9:00 AM82 °FScattered clouds.9 mph70%30.01 "HgN/A
8:00 AM81 °FScattered clouds.5 mph70%30.01 "HgN/A
7:00 AM79 °FScattered clouds.2 mph74%30.01 "HgN/A
6:00 AM75 °FScattered showers. Broken clouds.No wind89%29.98 "HgN/A
5:00 AM73 °FScattered showers. Partly cloudy.No wind94%29.95 "HgN/A
Weather by CustomWeather, © 2016

See weather overviewHow to use our weather pages